Location: Fontevrault
(47.1823°N, 0.0493°E)
Time: 07:44:17
(UTC+00:00)

Cosmos 2263 Rocket - Pass Details

Date: 26 October 2021
Orbit: 825 x 847 km, 71.0° (Epoch: 01 December)

Event Time Altitude Azimuth Distance (km) Brightness Sun altitude
Rises 17:57:57 0° 325° (NW) 3,373 5.7 -11.7°
Reaches altitude 10° 18:00:36 10° 316° (NW) 2,435 5.2 -12.1°
Maximum altitude 18:05:27 32° 255° (WSW) 1,396 4.2 -12.9°
Drops below altitude 10° 18:10:18 10° 194° (SSW) 2,423 4.8 -13.8°
Sets 18:12:56 0° 185° (S) 3,354 5.4 -14.2°
